SL-6 R/B(2)

Last updated on Sun Jun 21 2026 00:02:15 GMT+0000 (Coordinated Universal Time)

1 20666U 90055D 26171.44015618 .00001074 00000+0 90726-4 0 9994 2 20666 62.7821 264.3069 0041187 5.6187 354.5366 15.04011698953640
UTC large
Height (km)
Speed (km/s)
/
Latitude / Longitude
Inclination (degrees)
Orbital Period (minutes)
Azimuth
Elevation
Range (km)
Doppler Factor

Next 0 passes for location: London (51.5072 / 0.1276)

No passes found over London.
SL-6 R/B(2)